#timestamp,LO_Frequency,Hit,StdDev 
1597450515.1,286047015.3,P
1597450535.9,286047017.1,P
1597450555.7,286047016.7,P
1597450575.6,286047014.4,Y
1597450595.4,286046999.6,P
1597450615.2,286046996.7,N
1597450635.1,286046997.8,N
1597450636.0,286046997.8,N
1597450655.8,286046997.3,N
1597450675.6,286046994.9,N
1597450695.5,286046995.2,N
1597450715.3,286046997.6,N
1597450735.2,286046996.5,N
1597450755.9,286046999.1,N
1597450775.7,286046999.4,N
1597450795.6,286046999.0,N
1597450815.4,286046996.5,N
1597450835.2,286046999.5,N
1597450855.1,286046999.5,N
1597450856.0,286046999.5,N
1597450875.8,286046996.9,N
1597450895.7,286046999.6,N
1597450915.5,286046999.2,N
1597450935.3,286046998.8,N
1597450955.2,286046998.9,N
1597450975.9,286046998.5,N
1597450995.7,286047000.5,N
1597451015.6,286047000.0,N
1597451035.4,286046999.9,N
1597451055.2,286047002.4,N
1597451075.1,286047002.6,N
1597451076.0,286047002.6,N
1597451095.8,286047001.5,N
1597451115.7,286047002.1,N
1597451135.5,286047002.6,N
1597451155.3,286047001.7,N
1597451175.2,286047004.0,N
1597451195.0,286047004.0,N
1597451195.9,286047004.0,N
1597451215.8,286047005.3,N
1597451235.6,286047005.4,N
1597451255.4,286047004.5,N
1597451275.3,286047007.3,N
1597451295.1,286047006.6,N
1597451315.8,286047007.3,N
1597451335.7,286047004.9,N
1597451355.5,286047005.3,N
1597451375.4,286047005.1,N
1597451395.2,286047005.2,N
1597451415.0,286047004.6,N
1597451415.9,286047004.6,N
1597451435.8,286047005.2,N
1597451455.6,286047006.0,N
1597451475.4,286047004.8,N
1597451495.3,286047007.0,N
1597451515.1,286047007.3,Y
1597451535.9,286047001.7,P
1597451555.7,286047004.3,P
1597451575.5,286047002.2,N
1597451595.4,286047002.3,N
1597451615.2,286047002.5,N
1597451635.0,286047002.8,N
1597451635.9,286047002.8,Y
1597451655.8,286046998.9,P
1597451675.6,286047001.2,N
1597451695.5,286047000.8,N
1597451715.3,286046999.9,N
1597451735.1,286047000.2,N
1597451755.9,286047000.2,N
1597451775.7,286047002.4,N
1597451795.5,286047000.4,N
1597451815.4,286046999.8,N
1597451835.2,286047001.7,N
1597451855.1,286047004.2,Y
1597451856.0,286047004.2,P
1597451875.8,286047004.0,N
1597451895.6,286047001.6,N
1597451915.5,286047000.2,N
1597451935.3,286046999.8,N
1597451955.2,286047000.5,N
1597451975.9,286047000.7,N
1597451995.7,286047000.6,N
1597452015.6,286046998.6,N
1597452035.4,286046998.5,N
1597452055.2,286047000.8,N
1597452075.1,286047000.0,N
1597452076.0,286047000.0,N
1597452095.8,286047000.9,N
1597452115.7,286047000.0,N
1597452135.5,286047000.4,N
1597452155.3,286047002.8,N
1597452175.2,286046999.7,N
1597452195.0,286046999.8,N
1597452195.9,286046999.8,N
1597452215.7,286047002.7,N
1597452235.6,286047000.2,N
1597452255.4,286046999.8,N
1597452275.3,286047002.0,N
1597452295.1,286047001.9,N
1597452315.8,286047001.4,N
1597452335.7,286047001.5,N
1597452355.5,286047004.4,Y
1597452375.4,286047004.3,P
1597452395.2,286047004.3,N
1597452415.0,286047003.3,N
1597452415.9,286047003.3,N
1597452435.8,286047005.8,Y
1597452455.6,286047002.8,P
1597452475.5,286047000.2,N
1597452495.3,286047002.1,N
1597452515.1,286047002.3,N
1597452535.9,286047002.5,N
1597452555.7,286047002.1,N
1597452575.5,286047000.5,N
1597452595.4,286047001.8,N
1597452615.2,286047003.6,Y
1597452635.1,286047002.1,P
1597452636.0,286047002.1,P
1597452655.8,286047002.6,P
1597452675.6,286047001.5,Y
1597452695.5,286047001.2,P
1597452715.3,286047000.3,N
1597452735.2,286047001.1,N
1597452755.9,286047000.7,N
1597452775.7,286047001.0,N
1597452795.6,286047000.4,N
1597452815.4,286046999.8,N
1597452835.2,286047002.5,Y
1597452855.1,286047002.1,P
1597452856.0,286047002.1,P
1597452875.8,286047002.4,P
1597452895.7,286047002.0,Y
1597452915.5,286047000.3,P
1597452935.3,286046998.8,N
1597452955.2,286046998.2,N
1597452975.0,286046999.4,N
1597452975.9,286046999.4,N
1597452995.7,286047000.2,N
1597453015.6,286047000.7,N
1597453035.4,286046999.3,N
1597453055.3,286046998.3,N
1597453075.1,286046998.8,N
1597453076.0,286046998.8,N
1597453095.8,286046998.4,N
1597453115.7,286047000.9,N
1597453135.5,286047002.3,N
1597453155.3,286047001.9,N
1597453175.2,286047002.2,N
1597453195.0,286047002.5,N
1597453195.9,286047002.5,N
